This is the latest recevied weather packets stored in our database for station/object W2TAO. If no packets are shown the sender has not sent any weather packets the latest 10 day(s).
| Time | Temp. | Humidity | Pressure | Rain* | Wind** | Luminosity | Snow |
|---|---|---|---|---|---|---|---|
| 1778106344 | 15.56° C | 99% | 1007.5 hPa | 0 mm | - | 13 W/m² | - |
| 1778106041 | 15.56° C | 99% | 1007.7 hPa | 0 mm | - | 11 W/m² | - |
| 1778105738 | 15.56° C | 99% | 1007.7 hPa | 0 mm | - | 9 W/m² | - |
| 1778105436 | 15.56° C | 99% | 1007.6 hPa | 0 mm | - | 20 W/m² | - |
| 1778105132 | 15.56° C | 99% | 1007.7 hPa | 0 mm | - | 38 W/m² | - |
| 1778104828 | 15.56° C | 99% | 1007.6 hPa | 0 mm | - | 48 W/m² | - |
| 1778104525 | 15.56° C | 99% | 1007.6 hPa | 0 mm | - | 97 W/m² | - |
| 1778104220 | 15.56° C | 99% | 1007.6 hPa | 0 mm | - | 121 W/m² | - |
| 1778103918 | 15.56° C | 99% | 1007.5 hPa | 0 mm | - | 64 W/m² | - |
| 1778103615 | 15.56° C | 99% | 1007.6 hPa | 0 mm | - | 113 W/m² | - |
| 1778103313 | 15° C | 99% | 1007.5 hPa | 0 mm | - | 98 W/m² | - |
| 1778103010 | 15° C | 99% | 1007.4 hPa | 0 mm | - | 52 W/m² | - |
| 1778102706 | 15° C | 99% | 1007.3 hPa | 0 mm | - | 29 W/m² | - |
| 1778102401 | 15° C | 99% | 1007.5 hPa | 0 mm | - | 31 W/m² | - |
| 1778102097 | 15° C | 99% | 1007.4 hPa | 0 mm | - | 52 W/m² | - |
| 1778101794 | 15.56° C | 99% | 1007.4 hPa | 0 mm | - | 44 W/m² | - |
| 1778101490 | 15.56° C | 99% | 1007.5 hPa | 0 mm | - | 54 W/m² | - |
| 1778101188 | 15.56° C | 99% | 1007.4 hPa | 0 mm | - | 65 W/m² | - |
| 1778100884 | 15.56° C | 99% | 1007.2 hPa | 0 mm | - | 108 W/m² | - |
| 1778100580 | 15.56° C | 99% | 1007.3 hPa | 0 mm | - | 165 W/m² | - |
| 1778100278 | 15.56° C | 99% | 1007.3 hPa | 0 mm | - | 221 W/m² | - |
| 1778099975 | 15° C | 99% | 1007.6 hPa | 0 mm | - | 91 W/m² | - |
| 1778099672 | 15.56° C | 99% | 1007.3 hPa | 0 mm | - | 108 W/m² | - |
| 1778099369 | 15° C | 99% | 1007.2 hPa | 0 mm | - | 127 W/m² | - |
| 1778099067 | 15.56° C | 99% | 1007.3 hPa | 0 mm | - | 270 W/m² | - |
* Rain latest hour (hover to see other rain measurements)
** Current wind speed in m/s (hover to see current wind gust speed)